Flight Track Log - Related Links

Times and Time Zones

All times are in EDT time to prevent confusion due to time zone crossing. See the CTL18 flight status page for this flight to view local times or setup timezone preferences in your user account.

Time Position Orientation Groundspeed Altitude Reporting Facility
EDT Latitude Longitude Course Direction KTS MPH feet Rate Location/Type
10:43PM 41.5414 -81.7261 327° Northwest 173 199 1,400  Level Cleveland Center
10:44PM 41.5767 -81.7572 327° Northwest 148 170 2,100 595 Climbing Cleveland Center
10:45PM 41.5908 -81.8075 291° West 141 162 2,600 590 Climbing Cleveland Center
10:46PM 41.6069 -81.8550 294° West 130 150 3,300 694 Climbing Cleveland Center
10:47PM 41.6189 -81.8997 290° West 130 150 4,000 661 Climbing Cleveland Center
10:48PM 41.6308 -81.9472 289° West 130 150 4,700 645 Climbing Cleveland Center
10:49PM 41.6428 -81.9919 290° West 132 152 5,300 678 Climbing Cleveland Center
10:50PM 41.6547 -82.0367 290° West 127 146 6,000 393 Climbing Cleveland Center
10:51PM 41.6708 -82.0842 294° West 146 168 6,100 47 Climbing Cleveland Center
10:53PM 41.6889 -82.1403 293° West 154 177 6,100  Level Cleveland Center
10:53PM 41.7047 -82.1906 293° West 154 177 6,100 -50 Level Cleveland Center
10:55PM 41.7250 -82.2442 297° West 157 181 6,000  Descending Cleveland Center
10:56PM 41.7408 -82.3000 291° West 155 178 6,100  Climbing Cleveland Center
10:57PM 41.7567 -82.3561 291° West 156 180 6,000 -50 Descending Cleveland Center
10:58PM 41.7703 -82.4094 289° West 161 185 6,000 50 Level Cleveland Center
10:59PM 41.7881 -82.4631 294° West 162 186 6,100 49 Climbing Cleveland Center
11:00PM 41.8061 -82.5192 293° West 163 188 6,100 -50 Level Cleveland Center
11:01PM 41.8258 -82.5839 292° West 164 189 6,000 -50 Descending Cleveland Center
11:02PM 41.8606 -82.6211 321° Northwest 170 196 6,000  Level Cleveland Center
11:03PM 41.8972 -82.6614 321° Northwest 169 194 6,000 50 Level Cleveland Center
11:04PM 41.9342 -82.6961 325° Northwest 166 191 6,100 49 Climbing Cleveland Center
11:05PM 41.9711 -82.7336 323° Northwest 165 190 6,100  Level Cleveland Center
11:06PM 42.0078 -82.7739 321° Northwest 168 193 6,100  Level Cleveland Center
11:07PM 42.0447 -82.8089 325° Northwest 167 192 6,100 -49 Level Cleveland Center
11:08PM 42.0833 -82.8522 320° Northwest 167 192 6,000 -50 Descending Cleveland Center
11:09PM 42.1244 -82.8872 328° Northwest 168 193 6,000 50 Level Cleveland Center
11:10PM 42.1611 -82.9250 323° Northwest 170 196 6,100 -99 Climbing Cleveland Center
11:11PM 42.2019 -82.9658 323° Northwest 177 204 5,800 -397 Descending Cleveland Center
11:12PM 42.2431 -83.0008 328° Northwest 185 213 5,300 -393 Descending Cleveland Center
11:13PM 42.2839 -83.0389 325° Northwest 180 207 5,000 -298 Descending Cleveland Center
11:14PM 42.3247 -83.0797 324° Northwest 178 205 4,700 -298 Descending Cleveland Center
11:15PM 42.3675 -83.1236 323° Northwest 180 207 4,400 -393 Descending Cleveland Center
11:16PM 42.4083 -83.1647 323° Northwest 184 212 3,900 -496 Descending Cleveland Center
11:17PM 42.4511 -83.2031 327° Northwest 185 213 3,400 -397 Descending Cleveland Center
11:18PM 42.4897 -83.2442 322° Northwest 175 201 3,100 -446 Descending Cleveland Center
11:19PM 42.5267 -83.2794 325° Northwest 168 193 2,500 -446 Descending Cleveland Center
11:20PM 42.5717 -83.3097 334° Northwest 167 192 2,200 -148 Descending Cleveland Center
11:21PM 42.6086 -83.3394 329° Northwest 147 169 2,200 -99 Level Cleveland Center
11:22PM 42.6369 -83.3661 325° Northwest 118 136 2,000 -298 Descending Cleveland Center
11:23PM 42.6636 -83.3842 334° Northwest 103 119 1,600 -393 Descending Cleveland Center
11:25PM 42.6500 -83.4167 304° West  Level FlightAware Approximate
11:32PM 42.6656 -83.4205 304° West  Level Estimated

Login

Don't have an account? Register now (free) for customized features, flight alerts, and more!